TimeEDT,TemperatureF,Dew PointF,Humidity,Sea Level PressureIn,VisibilityMPH,Wind Direction,Wind SpeedMPH,Gust SpeedMPH,PrecipitationIn,Events,Conditions,WindDirDegrees,DateUTC
12:53 AM,62.1,55.9,80,30.04,10.0,Calm,Calm,-,N/A,,Clear,0,2013-08-01 04:53:00
1:53 AM,59.0,55.9,90,30.02,10.0,SSE,3.5,-,N/A,,Clear,150,2013-08-01 05:53:00
2:53 AM,60.1,55.9,86,30.02,10.0,Calm,Calm,-,N/A,,Clear,0,2013-08-01 06:53:00
3:53 AM,59.0,57.0,93,30.02,10.0,Calm,Calm,-,N/A,,Partly Cloudy,0,2013-08-01 07:53:00
4:53 AM,57.0,55.9,96,30.01,10.0,Calm,Calm,-,N/A,,Scattered Clouds,0,2013-08-01 08:53:00
5:53 AM,57.0,55.0,93,30.02,10.0,Calm,Calm,-,N/A,,Scattered Clouds,0,2013-08-01 09:53:00
6:53 AM,62.1,59.0,90,30.03,10.0,South,3.5,-,N/A,,Scattered Clouds,180,2013-08-01 10:53:00
7:53 AM,66.0,59.0,78,30.03,10.0,South,4.6,-,N/A,,Scattered Clouds,180,2013-08-01 11:53:00
8:53 AM,69.1,61.0,75,30.02,10.0,South,4.6,-,N/A,,Scattered Clouds,180,2013-08-01 12:53:00
9:53 AM,73.9,62.1,66,30.01,10.0,South,4.6,-,N/A,,Scattered Clouds,180,2013-08-01 13:53:00
10:53 AM,79.0,61.0,54,30.00,10.0,South,10.4,-,N/A,,Scattered Clouds,170,2013-08-01 14:53:00
11:53 AM,79.0,57.0,47,29.99,10.0,South,13.8,20.7,N/A,,Scattered Clouds,190,2013-08-01 15:53:00
12:53 PM,80.1,57.9,47,29.96,10.0,SSW,12.7,20.7,N/A,,Scattered Clouds,200,2013-08-01 16:53:00
1:53 PM,79.0,55.9,45,29.95,10.0,SSW,17.3,-,N/A,,Scattered Clouds,210,2013-08-01 17:53:00
2:53 PM,79.0,57.0,47,29.94,10.0,SSW,12.7,20.7,N/A,,Partly Cloudy,200,2013-08-01 18:53:00
3:53 PM,78.1,57.0,48,29.94,10.0,South,12.7,-,N/A,,Scattered Clouds,180,2013-08-01 19:53:00
4:53 PM,75.9,57.9,54,29.94,10.0,SSW,12.7,-,N/A,,Scattered Clouds,200,2013-08-01 20:53:00
5:53 PM,73.9,59.0,59,29.94,10.0,SSW,13.8,19.6,N/A,,Scattered Clouds,200,2013-08-01 21:53:00
6:53 PM,71.1,57.9,63,29.93,10.0,South,10.4,-,N/A,,Scattered Clouds,170,2013-08-01 22:53:00
7:53 PM,68.0,57.9,70,29.94,10.0,South,10.4,-,N/A,,Scattered Clouds,180,2013-08-01 23:53:00
8:53 PM,66.0,60.1,81,29.94,10.0,South,5.8,-,N/A,,Scattered Clouds,180,2013-08-02 00:53:00
9:53 PM,64.9,59.0,81,29.93,10.0,South,5.8,-,N/A,,Partly Cloudy,180,2013-08-02 01:53:00
10:53 PM,63.0,59.0,87,29.92,10.0,South,4.6,-,N/A,,Scattered Clouds,180,2013-08-02 02:53:00
11:53 PM,64.9,60.1,84,29.90,10.0,South,5.8,-,N/A,,Overcast,170,2013-08-02 03:53:00